• En España
  • Lista de países
  • Para 7 días
  • Temperatura del agua
  • Mapa Satelital
  • El tiempo en el mapa
  • Informadores
  • user-avatar
    Iniciar sesión

    Tiempo cada hora Klevcovo

    Hoy, 16 Agosto, Jueves

    Tiempo Temperatura Precipitaciones Viento Presión Humedad
    00:00 +16°C° 0 mm 2 mps 742 mmHg 98%
    01:00 +16°C° 0 mm 2 mps 742 mmHg 98%
    02:00 +15°C° 0 mm 2 mps 743 mmHg 98%
    03:00 +15°C° 0 mm 2 mps 743 mmHg 98%
    04:00 +15°C° 0 mm 2 mps 743 mmHg 98%
    05:00 +14°C° 0 mm 2 mps 744 mmHg 97%
    06:00 +15°C° 0 mm 2 mps 744 mmHg 94%
    07:00 +15°C° 0 mm 2 mps 745 mmHg 92%
    08:00 +16°C° 0 mm 2 mps 745 mmHg 88%
    09:00 +17°C° 0 mm 2 mps 746 mmHg 80%
    10:00 +19°C° 0 mm 2 mps 746 mmHg 71%
    11:00 +20°C° 0 mm 2 mps 747 mmHg 63%
    12:00 +21°C° 0 mm 2 mps 747 mmHg 60%
    13:00 +21°C° 0 mm 2 mps 747 mmHg 57%
    14:00 +23°C° 0 mm 2 mps 747 mmHg 54%
    15:00 +23°C° 0 mm 2 mps 747 mmHg 57%
    16:00 +23°C° 0 mm 2 mps 748 mmHg 60%
    17:00 +22°C° 0 mm 1 mps 748 mmHg 64%
    18:00 +20°C° 0 mm 1 mps 748 mmHg 69%
    19:00 +18°C° 0 mm 1 mps 748 mmHg 75%
    20:00 +15°C° 0 mm 1 mps 749 mmHg 81%
    21:00 +15°C° 0 mm 1 mps 749 mmHg 83%
    22:00 +14°C° 0 mm 1 mps 749 mmHg 84%
    23:00 +13°C° 0 mm 1 mps 750 mmHg 86%

    Mañana, 17 Agosto, Viernes

    Tiempo Temperatura Precipitaciones Viento Presión Humedad
    00:00 +13°C° 0 mm 1 mps 750 mmHg 87%
    01:00 +12°C° 0 mm 1 mps 750 mmHg 88%
    02:00 +12°C° 0 mm 1 mps 750 mmHg 88%
    03:00 +12°C° 0 mm 1 mps 751 mmHg 88%
    04:00 +12°C° 0 mm 1 mps 751 mmHg 88%
    05:00 +12°C° 0 mm 1 mps 751 mmHg 88%
    06:00 +14°C° 0 mm 1 mps 752 mmHg 79%
    07:00 +16°C° 0 mm 1 mps 752 mmHg 71%
    08:00 +20°C° 0 mm 1 mps 752 mmHg 63%
    09:00 +21°C° 0 mm 1 mps 752 mmHg 58%
    10:00 +23°C° 0 mm 1 mps 752 mmHg 52%
    11:00 +24°C° 0 mm 1 mps 752 mmHg 47%
    12:00 +24°C° 0 mm 1 mps 752 mmHg 46%
    13:00 +25°C° 0 mm 1 mps 752 mmHg 44%
    14:00 +25°C° 0 mm 1 mps 751 mmHg 43%
    15:00 +24°C° 0 mm 1 mps 751 mmHg 48%
    16:00 +24°C° 0 mm 1 mps 751 mmHg 53%
    17:00 +23°C° 0 mm 1 mps 751 mmHg 57%
    18:00 +21°C° 0 mm 1 mps 751 mmHg 63%
    19:00 +19°C° 0 mm 1 mps 751 mmHg 69%
    20:00 +16°C° 0 mm 1 mps 751 mmHg 74%
    21:00 +15°C° 0 mm 1 mps 751 mmHg 77%
    22:00 +14°C° 0 mm 1 mps 751 mmHg 79%
    23:00 +14°C° 0 mm 1 mps 751 mmHg 81%

    Pasado mañana, 18 Agosto, Sábado

    Tiempo Temperatura Precipitaciones Viento Presión Humedad
    00:00 +13°C° 0 mm 1 mps 751 mmHg 83%
    01:00 +13°C° 0 mm 1 mps 751 mmHg 85%
    02:00 +12°C° 0 mm 1 mps 751 mmHg 86%
    03:00 +12°C° 0 mm 1 mps 751 mmHg 86%
    04:00 +12°C° 0 mm 1 mps 752 mmHg 86%
    05:00 +12°C° 0 mm 1 mps 752 mmHg 86%
    06:00 +14°C° 0 mm 1 mps 752 mmHg 79%
    07:00 +16°C° 0 mm 1 mps 752 mmHg 71%
    08:00 +19°C° 0 mm 1 mps 752 mmHg 64%
    09:00 +20°C° 0 mm 2 mps 752 mmHg 59%
    10:00 +21°C° 0 mm 2 mps 752 mmHg 53%
    11:00 +24°C° 0 mm 2 mps 751 mmHg 48%
    12:00 +24°C° 0 mm 2 mps 751 mmHg 47%
    13:00 +25°C° 0 mm 2 mps 751 mmHg 45%
    14:00 +25°C° 0 mm 2 mps 751 mmHg 44%
    15:00 +25°C° 0 mm 2 mps 750 mmHg 49%
    16:00 +24°C° 0 mm 2 mps 750 mmHg 53%
    17:00 +24°C° 0 mm 1 mps 750 mmHg 58%
    18:00 +22°C° 0 mm 1 mps 750 mmHg 63%
    19:00 +20°C° 0 mm 1 mps 750 mmHg 69%
    20:00 +16°C° 0 mm 1 mps 750 mmHg 75%
    21:00 +16°C° 0 mm 1 mps 750 mmHg 76%
    22:00 +15°C° 0 mm 1 mps 750 mmHg 78%
    23:00 +15°C° 0 mm 1 mps 750 mmHg 80%

    19 Agosto, Domingo

    Tiempo Temperatura Precipitaciones Viento Presión Humedad
    00:00 +14°C° 0 mm 2 mps 750 mmHg 82%
    01:00 +14°C° 0 mm 2 mps 749 mmHg 84%
    02:00 +14°C° 0 mm 2 mps 749 mmHg 87%
    03:00 +14°C° 0 mm 2 mps 749 mmHg 89%
    04:00 +14°C° 0 mm 2 mps 749 mmHg 90%
    05:00 +14°C° 0 mm 2 mps 749 mmHg 92%
    06:00 +16°C° 0 mm 2 mps 749 mmHg 85%
    07:00 +18°C° 0 mm 2 mps 749 mmHg 78%
    08:00 +20°C° 0 mm 3 mps 749 mmHg 71%
    09:00 +21°C° 0 mm 3 mps 748 mmHg 65%
    10:00 +22°C° 0 mm 4 mps 748 mmHg 58%
    11:00 +25°C° 0 mm 4 mps 748 mmHg 52%
    12:00 +25°C° 0 mm 4 mps 747 mmHg 51%
    13:00 +26°C° 0 mm 4 mps 747 mmHg 50%
    14:00 +26°C° 0 mm 4 mps 746 mmHg 49%
    15:00 +26°C° 0,1 mm 4 mps 746 mmHg 54%
    16:00 +25°C° 0,1 mm 3 mps 745 mmHg 59%
    17:00 +24°C° 0,1 mm 3 mps 745 mmHg 64%
    18:00 +22°C° 0,1 mm 3 mps 745 mmHg 68%
    19:00 +21°C° 0,1 mm 3 mps 744 mmHg 73%
    20:00 +19°C° 0,1 mm 3 mps 744 mmHg 77%
    21:00 +19°C° 0,2 mm 3 mps 744 mmHg 81%
    22:00 +19°C° 0,2 mm 3 mps 744 mmHg 85%
    23:00 +18°C° 0,2 mm 3 mps 744 mmHg 89%

    20 Agosto, Lunes

    Tiempo Temperatura Precipitaciones Viento Presión Humedad
    00:00 +18°C° 0,1 mm 3 mps 744 mmHg 92%
    01:00 +17°C° 0,1 mm 3 mps 744 mmHg 94%
    02:00 +17°C° 0,1 mm 2 mps 744 mmHg 97%
    03:00 +17°C° 0 mm 2 mps 744 mmHg 97%
    04:00 +16°C° 0 mm 2 mps 744 mmHg 98%
    05:00 +16°C° 0 mm 2 mps 744 mmHg 98%
    06:00 +17°C° 0 mm 2 mps 745 mmHg 95%
    07:00 +18°C° 0 mm 2 mps 745 mmHg 91%
    08:00 +18°C° 0 mm 2 mps 745 mmHg 88%
    09:00 +19°C° 0,1 mm 2 mps 745 mmHg 85%
    10:00 +19°C° 0,1 mm 2 mps 745 mmHg 83%
    11:00 +20°C° 0,1 mm 2 mps 745 mmHg 80%
    12:00 +20°C° 0,1 mm 2 mps 745 mmHg 75%
    13:00 +21°C° 0,1 mm 2 mps 745 mmHg 71%
    14:00 +23°C° 0,1 mm 2 mps 745 mmHg 66%
    15:00 +23°C° 0 mm 2 mps 745 mmHg 67%
    16:00 +21°C° 0 mm 2 mps 745 mmHg 68%
    17:00 +22°C° 0 mm 1 mps 745 mmHg 69%
    18:00 +21°C° 0 mm 1 mps 745 mmHg 74%
    19:00 +19°C° 0 mm 1 mps 745 mmHg 80%
    20:00 +16°C° 0 mm 1 mps 745 mmHg 85%
    21:00 +15°C° 0 mm 1 mps 745 mmHg 86%
    22:00 +15°C° 0 mm 1 mps 746 mmHg 87%
    23:00 +14°C° 0 mm 1 mps 746 mmHg 89%

    21 Agosto, Martes

    Tiempo Temperatura Precipitaciones Viento Presión Humedad
    00:00 +14°C° 0 mm 1 mps 746 mmHg 90%
    01:00 +13°C° 0 mm 1 mps 746 mmHg 91%
    02:00 +13°C° 0 mm 1 mps 746 mmHg 92%
    03:00 +13°C° 0 mm 1 mps 746 mmHg 91%
    04:00 +12°C° 0 mm 0 mps 746 mmHg 91%
    05:00 +12°C° 0 mm 0 mps 746 mmHg 91%
    06:00 +14°C° 0 mm 0 mps 746 mmHg 83%
    07:00 +16°C° 0 mm 0 mps 746 mmHg 76%
    08:00 +18°C° 0 mm 0 mps 746 mmHg 68%
    09:00 +21°C° 0 mm 1 mps 746 mmHg 63%
    10:00 +23°C° 0 mm 1 mps 746 mmHg 57%
    11:00 +24°C° 0 mm 2 mps 746 mmHg 51%
    12:00 +24°C° 0 mm 2 mps 746 mmHg 49%
    13:00 +24°C° 0 mm 2 mps 745 mmHg 47%
    14:00 +25°C° 0 mm 2 mps 745 mmHg 46%
    15:00 +24°C° 0 mm 2 mps 745 mmHg 50%
    16:00 +24°C° 0 mm 2 mps 745 mmHg 55%
    17:00 +24°C° 0 mm 1 mps 744 mmHg 59%
    18:00 +21°C° 0 mm 2 mps 744 mmHg 64%
    19:00 +19°C° 0 mm 2 mps 744 mmHg 69%
    20:00 +17°C° 0 mm 2 mps 744 mmHg 74%
    21:00 +17°C° 0 mm 2 mps 744 mmHg 77%
    22:00 +17°C° 0 mm 3 mps 743 mmHg 79%
    23:00 +17°C° 0 mm 3 mps 743 mmHg 81%
    Mostrar más